CAPE
69 28 13 74 46 21 15 25 42 1 73 13 11 30 1 0 0 0 0 0 0 0 0 0 0 0 0 0 0 0 0 0 0 0 0 0 0 0 0 0 0 0 0 0 0
19 38 21 0 24 21 53 22 19 10 47 45 12 10 0 0 0 0 23 6 0 0 0 0 0 0 0 0 0 0 0 0 0 0 0 0 0 0 0 0 0 0 0 0 0
1 8 14 31 6 13 13 64 35 22 7 75 13 0 0 0 0 0 0 2 0 0 0 0 0 0 0 0 0 0 0 0 0 0 0 0 0 0 0 0 0 0 0 0 0
0 0 0 1 10 22 44 21 35 23 0 4 0 0 0 0 0 0 0 0 0 0 0 0 0 0 0 0 0 0 0 0 0 0 0 0 0 0 0 0 0 0 0 0 0
6 0 0 1 19 0 27 46 14 2 9 22 14 0 0 0 0 0 0 0 0 0 0 0 0 0 0 0 0 0 0 0 0 0 0 0 0 0 0 0 0 0 0 0 0
11 0 0 0 1 2 10 19 21 9 25 0 0 0 0 0 0 0 0 0 0 0 0 0 0 0 0 0 0 0 0 0 0 0 0 0 0 0 0 0 0 0 0 0 0
14 10 0 0 0 28 68 29 39 34 1 8 0 0 0 0 0 0 0 0 0 0 0 0 0 0 0 0 0 0 0 0 0 0 0 0 0 0 0 0 0 0 0 0 0
33 21 10 0 4 66 45 29 4 0 0 1 0 0 0 0 0 0 0 0 0 0 0 0 0 0 0 0 0 0 0 0 0 0 0 0 0 0 0 0 0 0 0 0 0
27 7 12 19 57 6 1 3 0 0 0 0 0 0 0 0 0 0 0 0 0 0 0 0 0 0 0 0 0 0 0 0 0 0 0 0 0 0 0 0 0 0 0 0 0
7 9 4 2 1 2 0 0 0 0 0 0 0 0 0 0 0 0 0 0 0 0 0 0 0 0 0 0 0 0 0 0 0 0 0 0 0 0 0 0 0 0 0 0 0
5 8 3 0 1 0 0 0 0 0 0 0 0 0 0 0 0 0 0 0 0 0 0 0 0 0 0 0 0 0 0 0 0 0 0 0 0 0 0 0 0 0 0 0 0
0 0 0 1 0 0 0 0 1 0 0 0 0 0 0 0 0 0 0 0 0 0 0 0 0 0 0 0 0 0 0 0 0 0 0 0 0 0 0 0 0 0 0 0 0
0 0 0 0 0 0 0 0 0 0 0 0 0 0 0 0 0 0 0 0 0 0 0 0 0 0 0 0 0 0 0 0 0 0 0 0 0 0 0 0 0 0 0 0 0
0 0 0 0 0 0 0 0 0 0 0 0 0 0 0 0 0 0 0 0 0 0 0 0 0 0 0 0 0 0 0 0 0 0 0 0 0 0 0 0 0 0 0 0 0
0 0 0 0 0 0 0 0 0 0 0 0 0 0 0 0 0 0 0 0 0 0 0 0 0 0 0 0 0 0 0 0 0 0 0 0 0 0 0 0 0 0 0 0 0
0 0 0 0 0 0 0 0 0 0 0 0 0 0 0 0 0 0 0 0 0 0 0 0 0 0 0 0 0 0 0 0 0 0 0 0 0 0 0 0 0 0 0 0 0
0 0 0 0 0 0 0 0 0 0 0 0 0 0 0 0 0 0 0 0 0 0 0 0 0 0 0 0 0 0 0 0 0 0 0 0 0 0 0 0 0 0 0 0 0
0 0 0 0 0 0 0 0 0 0 0 0 0 0 0 0 0 0 0 0 0 0 0 0 0 0 0 0 0 0 0 0 0 0 0 0 0 0 0 0 0 0 0 0 0
0 0 0 0 0 0 0 0 0 0 0 0 0 0 0 0 0 0 0 0 0 0 0 0 0 0 0 0 0 0 0 0 0 0 0 0 0 0 0 0 0 0 0 0 0
0 0 0 0 0 0 0 0 0 0 0 0 0 0 0 0 0 0 0 0 0 0 0 0 0 0 0 0 0 0 0 0 0 0 0 0 0 0 0 0 0 0 0 0 0
0 0 0 0 0 0 0 0 0 0 0 0 0 0 0 0 0 0 0 0 0 0 0 0 0 0 0 0 0 0 0 0 0 1 0 0 0 0 0 0 0 0 0 0 0
0 0 0 0 0 0 0 0 0 0 0 0 0 0 0 0 0 0 0 0 0 0 0 0 0 0 0 0 0 0 0 0 0 0 0 0 0 0 0 0 0 0 0 0 0
0 0 0 0 0 0 0 0 0 0 0 0 0 0 0 0 0 0 0 0 0 0 0 0 0 0 0 0 0 0 0 0 0 0 0 0 0 0 0 0 0 0 0 0 0
0 0 0 0 0 0 0 0 0 0 0 0 0 0 0 0 0 0 0 0 0 0 0 0 0 0 0 0 0 0 0 0 0 0 0 0 0 0 0 0 0 0 0 0 0
0 0 0 0 0 0 0 0 0 0 0 0 0 0 0 0 0 0 0 0 0 0 0 0 0 0 0 0 0 0 0 0 0 0 0 0 0 0 0 0 0 0 0 0 0
0 0 0 0 0 0 0 0 0 0 0 0 0 0 0 0 0 0 0 0 0 0 0 0 0 0 0 0 0 0 0 0 0 0 0 0 0 0 0 0 0 0 0 0 0
0 0 0 0 0 0 0 0 0 0 0 0 0 0 0 0 0 0 0 0 0 0 0 0 0 0 0 0 0 0 0 0 0 0 0 0 0 0 0 0 0 0 0 0 0
CIN
-1 -1 0 0 0 0 -11 -12 -1 -4 0 -3 -1 0 -1 0 0 0 0 0 0 0 0 0 0 0 0 0 0 0 0 0 0 0 0 0 0 0 0 0 0 0 0 0 0
0 0 0 0 0 -1 0 -1 -27 -17 -1 -2 0 0 0 0 0 0 -2 0 0 0 0 0 0 0 0 0 0 0 0 0 0 0 0 0 0 0 0 0 0 0 0 0 0
0 0 0 0 -1 -1 -6 -1 -1 -12 -7 0 0 0 0 0 0 0 -1 0 0 0 0 0 0 0 0 0 0 0 0 0 0 0 0 0 0 0 0 0 0 0 0 0 0
0 0 0 0 -2 0 0 -6 -8 -7 -1 0 0 0 0 0 0 0 0 0 0 0 0 0 0 0 0 0 0 0 0 0 0 0 0 0 0 0 0 0 0 0 0 0 0
-2 0 0 -10 -17 0 -3 -1 -1 -19 -3 -3 -12 0 0 0 0 0 0 0 0 0 0 0 0 0 0 0 0 0 0 0 0 0 0 0 0 0 0 0 0 0 0 0 0
-82 0 0 0 -16 -17 -9 -6 0 -4 -21 0 0 0 0 0 0 0 0 0 0 0 0 0 0 0 0 0 0 0 0 0 0 0 0 0 0 0 0 0 0 0 0 0 0
0 0 0 0 -1 -5 0 0 0 -1 0 -45 0 0 0 0 0 0 0 0 0 0 0 0 0 0 0 0 0 0 0 0 0 0 0 0 0 0 0 0 0 0 0 0 0
-1 -4 -5 0 -1 0 0 0 -7 0 0 -35 0 0 0 0 0 0 0 0 0 0 0 0 0 0 0 0 0 0 0 0 0 0 0 0 0 0 0 0 0 0 0 0 0
-2 -9 -5 -1 -1 -4 0 0 -6 0 0 0 0 0 0 0 0 0 0 0 0 0 0 0 0 0 0 0 0 0 0 0 0 0 0 0 0 0 0 0 0 0 0 0 0
-9 -24 -19 -1 -32 -36 0 0 0 0 0 0 0 0 0 0 0 0 0 0 0 0 0 0 0 0 0 0 0 0 0 0 0 0 0 0 0 0 0 0 0 0 0 0 0
-18 -19 -17 0 -46 0 0 0 0 0 0 0 0 0 0 0 0 0 0 0 0 0 0 0 0 0 0 0 0 0 0 0 0 0 0 0 0 0 0 0 0 0 0 0 0
-19 0 -10 -50 0 0 0 0 0 0 0 0 0 0 0 0 0 0 0 0 0 0 0 0 0 0 0 0 0 0 0 0 0 0 0 0 0 0 0 0 0 0 0 0 0
0 -33 0 0 0 0 0 0 0 0 0 0 0 0 0 0 0 0 0 0 0 0 0 0 0 0 0 0 0 0 0 0 0 0 0 0 0 0 0 0 0 0 0 0 0
0 0 0 0 0 0 0 0 0 0 0 0 0 0 0 0 0 0 0 0 0 0 0 0 0 0 0 0 0 0 0 0 0 0 0 0 0 0 0 0 0 0 0 0 0
0 0 0 0 0 0 0 0 0 0 0 0 0 0 0 0 0 0 0 0 0 0 0 0 0 0 0 0 0 0 0 0 0 0 0 0 0 0 0 0 0 0 0 0 0
0 0 0 0 0 0 0 0 0 0 0 0 0 0 0 0 0 0 0 0 0 0 0 0 0 0 0 0 0 0 0 0 0 0 0 0 0 0 0 0 0 0 0 0 0
0 0 0 0 0 0 0 0 0 0 0 0 0 0 0 0 0 0 0 0 0 0 0 0 0 0 0 0 0 0 0 0 0 0 0 0 0 0 0 0 0 0 0 0 0
0 0 0 0 0 0 0 0 0 0 0 0 0 0 0 0 0 0 0 0 0 0 0 0 0 0 0 0 0 0 0 0 0 0 0 0 0 0 0 0 0 0 0 0 0
0 0 0 0 0 0 0 0 0 0 0 0 0 0 0 0 0 0 0 0 0 0 0 0 0 0 0 0 0 0 0 0 0 0 0 0 0 0 0 0 0 0 0 0 0
0 0 0 0 0 0 0 0 0 0 0 0 0 0 0 0 0 0 0 0 0 0 0 0 0 0 0 0 0 0 0 0 0 0 0 0 0 0 0 0 0 0 0 0 0
0 0 0 0 0 0 0 0 0 0 0 0 0 0 0 0 0 0 0 0 0 0 0 0 0 0 0 0 0 0 0 0 0 0 0 0 0 0 0 0 0 0 0 0 0
0 0 0 0 0 0 0 0 0 0 0 0 0 0 0 0 0 0 0 0 0 0 0 0 0 0 0 0 0 0 0 0 0 0 0 0 0 0 0 0 0 0 0 0 0
0 0 0 0 0 0 0 0 0 0 0 0 0 0 0 0 0 0 0 0 0 0 0 0 0 0 0 0 0 0 0 0 0 0 0 0 0 0 0 0 0 0 0 0 0
0 0 0 0 0 0 0 0 0 0 0 0 0 0 0 0 0 0 0 0 0 0 0 0 0 0 0 0 0 0 0 0 0 0 0 0 0 0 0 0 0 0 0 0 0
0 0 0 0 0 0 0 0 0 0 0 0 0 0 0 0 0 0 0 0 0 0 0 0 0 0 0 0 0 0 0 0 0 0 0 0 0 0 0 0 0 0 0 0 0
0 0 0 0 0 0 0 0 0 0 0 0 0 0 0 0 0 0 0 0 0 0 0 0 0 0 0 0 0 0 0 0 0 0 0 0 0 0 0 0 0 0 0 0 0
0 0 0 0 0 0 0 0 0 0 0 0 0 0 0 0 0 0 0 0 0 0 0 0 -1 0 0 0 0 0 0 0 0 0 0 0 0 0 0 0 0 0 0 0 0
Wind_Speed
20 16 13 10 7 11 13 11 9 13 14 15 16 16 16 15 14 15 15 18 17 17 17 16 14 14 14 15 15 15 17 19 17 16 15 15 14 15 16 14 16 16 15 14 13
19 15 13 11 12 10 9 16 14 10 17 14 13 15 15 13 11 12 15 15 16 15 15 14 13 14 15 17 17 17 16 14 15 15 13 15 14 15 15 15 15 15 14 14 15
20 17 17 12 13 12 11 10 14 18 21 5 12 14 14 16 18 20 18 18 17 16 15 14 13 14 15 15 17 18 18 13 15 14 15 15 15 16 15 17 16 16 16 17 18
21 16 14 13 12 13 10 10 7 8 10 17 10 12 14 18 27 19 18 18 18 17 15 14 15 16 16 18 15 16 14 15 14 15 16 16 17 17 17 17 14 17 19 20 22
24 18 13 13 12 14 13 12 11 9 8 8 5 12 15 16 18 17 18 16 14 14 16 16 16 16 18 15 15 15 15 14 13 14 15 16 18 20 20 19 22 24 24 25 25
23 20 16 14 12 14 13 9 8 4 4 7 10 13 14 16 16 15 14 12 12 14 14 15 17 13 14 16 18 14 12 14 16 17 17 19 20 21 19 20 21 21 23 24 25
24 20 17 14 13 15 15 9 6 4 2 8 9 6 5 12 13 12 9 10 10 12 12 12 13 16 14 14 14 12 16 16 18 19 20 22 24 23 22 22 24 24 24 28 31
27 23 16 13 13 19 21 14 8 2 0 7 9 5 10 10 10 8 10 8 6 6 6 8 7 10 15 12 16 18 18 22 21 21 21 21 26 20 21 24 28 30 33 34 35
26 23 26 21 23 21 18 14 8 4 2 7 10 6 11 13 8 11 10 11 9 8 7 8 10 13 15 17 19 21 24 24 23 20 24 23 26 21 23 31 33 35 36 36 33
30 21 18 18 17 13 14 14 11 2 3 11 8 6 9 10 11 11 10 10 11 11 12 13 14 17 18 21 27 25 24 24 26 25 26 29 34 33 32 35 38 36 33 30 30
31 16 17 17 14 3 5 5 8 2 5 6 4 1 8 11 8 9 11 10 10 11 16 15 16 19 20 19 18 19 22 24 24 25 30 30 35 38 37 35 32 30 28 30 31
37 23 13 8 5 4 3 4 7 8 9 7 8 3 4 11 5 8 10 12 13 14 14 14 16 17 16 16 17 20 22 26 26 26 30 33 41 41 33 31 30 29 30 32 34
36 29 28 21 20 20 9 6 12 9 2 4 3 3 6 4 4 9 10 9 8 9 11 15 16 16 15 17 20 21 24 26 29 32 29 37 41 35 29 27 27 28 29 30 32
26 22 15 15 21 18 15 10 10 13 3 5 6 6 9 12 5 8 11 10 10 9 11 12 15 15 16 19 22 27 23 26 30 32 35 30 43 35 32 31 28 26 27 31 33
15 13 15 13 21 18 17 12 13 15 4 11 9 12 9 6 10 9 10 8 7 10 13 14 15 16 18 20 20 22 22 25 27 29 33 31 34 31 27 29 24 21 26 30 33
10 10 13 12 14 16 13 16 15 8 8 12 12 10 8 7 9 10 9 8 9 10 10 13 15 16 17 16 18 17 21 23 24 26 32 28 28 31 25 23 22 21 26 31 33
5 8 11 12 9 11 15 18 11 11 12 8 9 9 7 9 9 9 9 10 12 14 16 15 16 15 14 16 16 17 20 26 27 26 28 23 27 28 26 22 22 26 29 33 31
11 10 10 12 10 12 16 19 7 15 12 10 7 7 8 10 10 11 10 11 13 11 11 15 18 14 14 15 16 17 17 22 27 26 28 23 27 23 20 23 22 25 27 29 27
15 16 16 10 12 15 12 25 22 21 23 20 8 9 10 11 11 11 11 10 12 12 12 12 15 13 14 14 15 16 18 16 21 23 28 24 26 30 24 19 21 24 24 24 25
17 17 16 10 17 19 22 24 23 21 17 13 13 14 16 13 11 11 11 12 11 13 13 11 13 15 14 15 17 16 14 19 20 27 29 27 28 22 16 15 16 19 22 24 25
17 18 16 14 18 21 26 26 26 24 21 19 15 10 10 10 12 12 12 13 14 14 13 13 16 16 16 17 14 16 17 18 19 20 25 27 21 11 14 20 19 21 24 26 28
16 18 14 18 20 21 25 25 24 23 20 20 20 20 20 20 17 15 12 13 11 12 14 14 15 17 15 14 13 14 15 11 14 14 15 21 23 22 22 23 24 25 26 29 31
16 15 13 16 22 23 22 23 21 21 20 20 19 19 19 20 18 18 18 17 20 18 18 18 17 17 17 19 18 22 22 23 23 22 22 22 21 21 21 21 22 23 25 21 24
14 15 14 19 20 23 22 20 20 17 18 18 19 18 18 18 17 17 17 17 19 18 18 17 17 18 18 17 18 20 20 21 23 23 21 23 24 26 26 25 25 21 9 10 17
14 15 15 16 17 19 17 19 20 19 17 17 17 17 19 17 17 16 17 17 17 18 18 16 15 16 19 21 22 24 24 23 23 24 22 21 22 24 23 22 20 4 3 15 17
14 15 15 16 16 17 15 16 17 17 17 16 16 16 16 16 16 15 16 16 16 17 17 17 15 14 17 19 21 23 24 26 27 26 28 27 27 28 26 23 16 5 13 19 20
18 16 15 14 14 14 13 16 15 16 15 15 15 15 15 14 15 15 15 14 15 16 17 15 13 12 11 13 17 18 20 23 22 21 23 20 22 22 27 26 20 20 21 22 22
Wind_Direction
351 353 353 351 313 247 250 259 253 243 222 212 218 217 219 221 227 228 233 246 249 252 243 240 241 240 243 247 258 266 269 263 267 265 276 284 289 295 299 305 308 310 313 315 320
341 342 344 337 347 333 305 238 236 251 227 212 212 214 214 207 210 223 257 255 254 252 239 233 232 239 244 248 256 260 265 269 271 272 277 279 287 291 298 304 308 313 318 318 317
340 334 339 329 339 329 326 262 233 225 215 196 206 207 205 229 223 240 263 257 254 251 240 239 238 241 246 253 259 260 262 268 272 276 279 283 289 293 297 296 301 306 311 312 311
341 333 325 320 310 326 296 259 266 250 265 229 195 198 228 232 223 247 262 255 251 246 237 236 239 245 247 247 265 261 271 277 279 284 285 285 290 293 295 299 309 307 305 306 305
2 343 325 317 304 308 301 270 257 250 290 137 156 225 233 225 236 256 258 256 252 241 236 236 239 246 246 254 263 266 268 280 287 292 294 293 291 291 292 298 297 297 300 300 302
0 354 335 328 314 316 301 290 233 208 255 214 232 237 226 215 254 262 257 250 249 239 242 245 246 252 253 258 263 268 272 280 289 291 295 291 291 295 300 305 303 305 304 304 306
1 1 339 330 338 357 30 51 62 100 166 217 240 221 180 228 257 263 261 250 254 243 242 252 252 256 254 257 267 271 268 280 288 289 291 296 286 288 299 304 300 303 306 303 302
24 10 334 1 1 46 54 46 44 99 319 218 226 222 216 257 261 262 253 251 265 253 253 262 271 260 261 262 269 269 273 267 282 289 292 292 283 295 302 302 297 297 298 301 302
21 23 33 43 49 45 40 42 61 92 134 194 210 226 226 257 256 261 257 239 249 254 268 277 272 262 263 258 262 270 266 269 276 292 288 289 286 295 300 299 297 297 299 302 306
34 23 23 27 31 28 40 45 54 59 253 190 213 222 239 240 250 260 258 253 245 248 254 265 268 257 262 261 257 263 268 273 274 285 287 285 282 288 296 297 296 299 302 306 308
79 22 25 16 13 305 325 240 204 160 29 26 233 213 233 238 252 260 263 255 256 256 250 264 254 254 262 269 273 273 274 276 283 291 289 287 287 287 296 298 301 303 305 306 307
92 114 118 54 63 36 163 168 189 186 56 21 21 351 266 237 255 278 266 248 249 245 257 260 257 266 273 277 277 278 277 280 286 292 293 292 288 290 297 298 300 302 304 305 307
94 105 110 113 120 119 105 133 184 203 131 29 325 292 249 273 274 267 262 250 253 257 264 258 265 278 278 281 278 284 282 285 286 293 296 294 289 291 296 301 302 304 307 309 311
98 102 106 133 120 126 141 169 195 190 189 300 254 270 238 210 266 237 232 263 264 257 269 278 279 280 281 280 283 277 289 289 289 291 289 300 290 294 296 296 298 302 308 312 314
104 108 112 120 121 130 143 175 185 185 284 245 258 229 262 314 246 272 274 281 271 266 271 273 279 283 284 286 292 286 295 293 295 294 295 296 294 299 304 298 299 305 312 316 318
113 121 124 132 144 134 158 156 166 267 281 248 248 258 272 299 299 279 304 315 300 298 305 291 292 295 293 303 303 302 299 300 300 299 291 298 296 300 304 307 309 311 315 318 320
144 131 126 135 186 175 147 109 294 332 232 259 255 269 292 276 279 298 307 311 296 280 278 289 294 305 308 302 311 309 301 294 294 295 293 307 300 299 308 309 313 314 317 319 322
108 135 143 124 142 161 153 70 190 202 244 250 287 308 318 288 292 291 301 313 317 320 303 286 284 306 315 313 309 312 307 295 293 296 299 310 300 312 322 318 319 320 322 323 326
104 109 108 116 135 137 58 68 135 152 151 91 333 306 295 298 299 300 321 330 322 323 310 302 302 312 310 313 315 316 306 317 307 309 303 307 310 309 316 317 323 325 324 322 284
98 100 99 112 114 119 116 117 123 77 61 44 115 227 213 250 280 298 304 295 305 299 303 323 318 307 309 312 311 314 319 311 314 302 302 308 310 314 331 342 344 290 253 272 282
98 99 100 111 112 106 106 114 122 130 131 132 126 9 352 321 291 298 310 306 306 313 321 319 311 312 309 306 311 310 314 315 317 314 307 308 316 341 243 200 227 275 289 287 288
101 101 104 104 106 108 107 116 123 127 133 133 136 140 144 153 169 212 334 329 334 343 329 325 323 314 318 324 324 317 320 327 326 330 320 294 239 233 223 233 276 271 278 289 298
103 106 115 113 102 107 116 120 123 127 134 136 137 142 144 144 148 152 161 181 147 151 177 177 193 195 203 217 256 209 203 199 215 224 209 214 216 249 259 241 248 259 268 261 270
111 105 112 105 111 109 113 123 125 138 142 144 140 144 146 147 158 158 164 173 166 171 172 173 188 188 192 202 207 207 198 190 191 209 210 204 227 233 239 251 260 255 240 222 233
105 105 113 108 109 112 121 121 120 126 137 144 142 143 139 143 151 158 162 168 174 175 172 181 191 196 213 223 224 225 216 204 194 198 198 217 216 230 238 242 243 233 123 220 219
98 98 104 110 117 112 122 130 130 132 137 143 145 149 150 152 151 151 158 162 164 169 169 189 197 212 235 232 225 226 220 213 210 209 218 224 236 243 240 233 221 53 209 228 235
56 73 90 102 114 118 128 122 132 132 142 143 142 144 153 170 185 191 182 181 177 171 164 170 181 203 188 212 246 232 214 202 201 201 204 207 211 221 242 244 234 230 221 231 237